EIN123 EGNT-EKBI

Flight info

Callsign EIN123
Flight time 0h 57m
Altitude 37000
Route DIGBI P15 ERLOT DCT OTLAB DCT TIMUP DCT GOLUM DCT DOREV DCT EPILO DCT ODNEV DCT GOKIM DCT BEVRA
Aircraft A320/M-SDE3FGHIRWY/LB1

Departure

Time 2025-10-03 11:19
Airport Newcastle International Airport (EGNT)

Arrival

Time 2025-10-03 12:17
Airport Billund Airport (EKBI)
Time Latitude Longitude Altitude Speed Heading
2025-10-03 10:48 55.03660 -1.70711 265 ft 0 kts
2025-10-03 11:00 55.03622 -1.70723 265 ft 3 kts 24°
2025-10-03 11:01 55.03598 -1.70763 265 ft 2 kts 89°
2025-10-03 11:01 55.03597 -1.70769 265 ft 0 kts 93°
2025-10-03 11:07 55.03595 -1.70701 279 ft 3 kts 93°
2025-10-03 11:08 55.03594 -1.70555 264 ft 11 kts 92°
2025-10-03 11:09 55.03653 -1.70473 263 ft 3 kts 324°
2025-10-03 11:09 55.03747 -1.70468 264 ft 14 kts
2025-10-03 11:10 55.03892 -1.70443 264 ft 2 kts 208°
2025-10-03 11:10 55.03876 -1.70442 264 ft 2 kts 171°
2025-10-03 11:11 55.03847 -1.70428 264 ft 2 kts 163°
2025-10-03 11:11 55.03785 -1.70327 264 ft 14 kts 109°
2025-10-03 11:12 55.03789 -1.69790 263 ft 13 kts 80°
2025-10-03 11:12 55.03845 -1.69470 257 ft 14 kts 66°
2025-10-03 11:13 55.03933 -1.69138 254 ft 14 kts 65°
2025-10-03 11:13 55.03998 -1.68897 253 ft 12 kts 66°
2025-10-03 11:14 55.04066 -1.68636 250 ft 13 kts 66°
2025-10-03 11:14 55.04102 -1.68494 248 ft 13 kts 64°
2025-10-03 11:15 55.04186 -1.68188 242 ft 15 kts 65°
2025-10-03 11:15 55.04306 -1.67732 241 ft 12 kts 65°
2025-10-03 11:16 55.04328 -1.67483 241 ft 8 kts 97°
2025-10-03 11:16 55.04301 -1.67385 243 ft 2 kts 141°
2025-10-03 11:17 55.04213 -1.67403 241 ft 6 kts 233°
2025-10-03 11:17 55.04193 -1.67472 242 ft 32 kts 245°
2025-10-03 11:18 55.03525 -1.69966 543 ft 160 kts 244°
2025-10-03 11:18 55.03074 -1.71732 1490 ft 158 kts 243°
2025-10-03 11:19 55.02129 -1.75338 2448 ft 170 kts 239°
2025-10-03 11:19 55.00595 -1.77959 3678 ft 163 kts 192°
2025-10-03 11:20 54.96560 -1.76392 4232 ft 233 kts 170°
2025-10-03 11:20 54.93348 -1.74715 5134 ft 251 kts 159°
2025-10-03 11:21 54.91325 -1.69510 6124 ft 296 kts 97°
2025-10-03 11:21 54.92497 -1.63938 7420 ft 317 kts 58°
2025-10-03 11:22 54.92827 -1.63081 7486 ft 322 kts 57°
2025-10-03 11:22 54.94146 -1.59995 7870 ft 316 kts 53°
2025-10-03 11:23 54.96954 -1.54031 9571 ft 320 kts 52°
2025-10-03 11:23 54.99916 -1.47615 10287 ft 364 kts 53°
2025-10-03 11:24 55.04764 -1.36615 12022 ft 393 kts 53°
2025-10-03 11:24 55.08132 -1.28896 13353 ft 407 kts 53°
2025-10-03 11:25 55.11606 -1.20931 14558 ft 417 kts 52°
2025-10-03 11:25 55.15145 -1.12783 15815 ft 424 kts 52°
2025-10-03 11:26 55.16934 -1.08652 16416 ft 428 kts 53°
2025-10-03 11:26 55.19737 -0.99468 17738 ft 432 kts 70°
2025-10-03 11:27 55.21919 -0.89567 18808 ft 440 kts 70°
2025-10-03 11:27 55.24150 -0.79468 19845 ft 449 kts 69°
2025-10-03 11:28 55.27554 -0.63924 21418 ft 461 kts 69°
2025-10-03 11:28 55.29115 -0.52952 22373 ft 468 kts 85°
2025-10-03 11:29 55.29855 -0.41499 23272 ft 476 kts 84°
2025-10-03 11:29 55.30602 -0.29849 23966 ft 485 kts 84°
2025-10-03 11:30 55.30980 -0.23939 24295 ft 489 kts 84°
2025-10-03 11:30 55.31741 -0.11983 24947 ft 497 kts 84°
2025-10-03 11:32 55.35110 0.43848 27775 ft 526 kts 83°
2025-10-03 11:34 55.37657 0.89280 29649 ft 544 kts 83°
2025-10-03 11:36 55.40770 1.49512 31862 ft 551 kts 81°
2025-10-03 11:38 55.41678 2.03636 34046 ft 554 kts 84°
2025-10-03 11:41 55.42349 2.64812 35972 ft 558 kts 84°
2025-10-03 11:42 55.43044 3.12544 36839 ft 557 kts 81°
2025-10-03 11:45 55.44287 3.73723 36872 ft 547 kts 73°
2025-10-03 11:46 55.47313 4.13467 36884 ft 543 kts 73°
2025-10-03 11:48 55.51583 4.72913 36955 ft 540 kts 73°
2025-10-03 11:50 55.54683 5.18909 36973 ft 539 kts 73°
2025-10-03 11:52 55.58385 5.77891 33836 ft 532 kts 75°
2025-10-03 11:54 55.60989 6.22405 29102 ft 498 kts 79°
2025-10-03 11:56 55.63252 6.63074 24406 ft 473 kts 83°
2025-10-03 11:56 55.63859 6.74627 22727 ft 470 kts 87°
2025-10-03 11:57 55.64358 6.84252 21249 ft 466 kts 88°
2025-10-03 11:57 55.64741 6.91808 20133 ft 464 kts 88°
2025-10-03 11:58 55.65218 7.01235 18796 ft 461 kts 87°
2025-10-03 11:58 55.66058 7.18059 16216 ft 454 kts 86°
2025-10-03 11:59 55.66598 7.29008 14565 ft 431 kts 87°
2025-10-03 11:59 55.67080 7.39124 13239 ft 389 kts 90°
2025-10-03 12:00 55.67510 7.48280 11989 ft 362 kts 89°
2025-10-03 12:00 55.67911 7.57069 10402 ft 353 kts 89°
2025-10-03 12:01 55.68293 7.65518 8881 ft 332 kts 91°
2025-10-03 12:01 55.68473 7.69500 8274 ft 318 kts 89°
2025-10-03 12:02 55.68812 7.76994 7254 ft 292 kts 93°
2025-10-03 12:02 55.69118 7.83953 6887 ft 278 kts 91°
2025-10-03 12:03 55.69408 7.90708 5560 ft 270 kts 91°
2025-10-03 12:03 55.69816 8.00461 3603 ft 259 kts 94°
2025-10-03 12:04 55.70075 8.06759 2940 ft 256 kts 94°
2025-10-03 12:04 55.70329 8.13089 2966 ft 259 kts 93°
2025-10-03 12:05 55.70581 8.19290 2963 ft 257 kts 94°
2025-10-03 12:05 55.70834 8.25622 2966 ft 258 kts 94°
2025-10-03 12:06 55.71089 8.31922 2965 ft 256 kts 94°
2025-10-03 12:06 55.71340 8.38221 2971 ft 257 kts 94°
2025-10-03 12:07 55.71582 8.44567 2941 ft 257 kts 94°
2025-10-03 12:07 55.71844 8.50853 2959 ft 251 kts 94°
2025-10-03 12:08 55.72148 8.58970 2979 ft 189 kts 96°
2025-10-03 12:09 55.72298 8.63159 2970 ft 153 kts 99°
2025-10-03 12:09 55.72361 8.64991 2974 ft 146 kts 100°
2025-10-03 12:09 55.72481 8.68490 2999 ft 138 kts 100°
2025-10-03 12:10 55.72605 8.72414 3002 ft 178 kts 97°
2025-10-03 12:10 55.72767 8.76839 2994 ft 180 kts 97°
2025-10-03 12:11 55.72921 8.81298 3001 ft 182 kts 97°
2025-10-03 12:11 55.73074 8.85786 3002 ft 182 kts 97°
2025-10-03 12:12 55.73298 8.92452 2636 ft 180 kts 97°
2025-10-03 12:13 55.73444 8.96823 2162 ft 172 kts 96°
2025-10-03 12:13 55.73513 8.98914 1932 ft 167 kts 96°
2025-10-03 12:13 55.73642 9.02856 1459 ft 151 kts 94°
2025-10-03 12:14 55.73756 9.06403 1055 ft 136 kts 95°
2025-10-03 12:14 55.73859 9.09678 692 ft 134 kts 97°
2025-10-03 12:15 55.73992 9.12969 335 ft 133 kts 92°
2025-10-03 12:15 55.74050 9.15684 232 ft 79 kts 86°
2025-10-03 12:16 55.74111 9.16863 242 ft 29 kts 49°
2025-10-03 12:17 55.74246 9.16567 239 ft 12 kts 266°
2025-10-03 12:17 55.74235 9.16280 237 ft 11 kts 265°
2025-10-03 12:17 55.74230 9.16139 236 ft 11 kts 266°
2025-10-03 12:18 55.74225 9.15999 235 ft 11 kts 266°
2025-10-03 12:18 55.74214 9.15587 232 ft 11 kts 266°
2025-10-03 12:19 55.74204 9.15248 230 ft 18 kts 265°
2025-10-03 12:19 55.74284 9.14987 228 ft 13 kts 356°
2025-10-03 12:20 55.74441 9.15003 231 ft 10 kts 40°
2025-10-03 12:20 55.74540 9.15082 229 ft 7 kts 359°
2025-10-03 12:21 55.74551 9.15081 229 ft 0 kts 358°